Time,TemperatureF,DewpointF,PressureIn,WindDirection,WindDirectionDegrees,WindSpeedMPH,WindSpeedGustMPH,Humidity,HourlyPrecipIn,Conditions,Clouds,dailyrainin,SoftwareType,DateUTC
2013-07-23 00:00:00,74.1,74.1,29.65,North,359,0.0,0.0,100,0.00,,---,0.01,VWS V14.01,2013-07-23 04:00:00,
2013-07-23 00:01:00,73.6,73.6,29.71,North,359,0.0,0.0,100,0.00,,---,0.00,VWS V14.01,2013-07-23 04:01:00,
2013-07-23 00:06:00,73.9,73.9,29.71,North,359,0.0,0.0,100,0.00,,---,0.00,VWS V14.01,2013-07-23 04:06:00,
2013-07-23 00:11:00,74.1,74.1,29.71,North,359,0.0,0.0,100,0.00,,---,0.00,VWS V14.01,2013-07-23 04:11:00,
2013-07-23 00:16:00,74.1,74.1,29.71,North,359,0.0,0.0,100,0.00,,---,0.00,VWS V14.01,2013-07-23 04:16:00,
2013-07-23 00:21:00,74.7,74.7,29.71,North,359,0.0,0.0,100,0.00,,---,0.00,VWS V14.01,2013-07-23 04:21:00,
2013-07-23 00:26:00,73.2,73.2,29.70,North,359,0.0,0.0,100,0.00,,---,0.00,VWS V14.01,2013-07-23 04:26:00,
2013-07-23 00:31:00,73.9,73.9,29.70,North,359,0.0,0.0,100,0.00,,---,0.00,VWS V14.01,2013-07-23 04:31:00,
2013-07-23 00:36:00,74.1,74.1,29.70,North,359,0.0,0.0,100,0.00,,---,0.00,VWS V14.01,2013-07-23 04:36:00,
2013-07-23 00:41:00,73.6,73.6,29.70,North,359,0.0,0.0,100,0.00,,---,0.00,VWS V14.01,2013-07-23 04:41:00,
2013-07-23 00:46:00,74.2,74.2,29.70,North,359,0.0,0.0,100,0.00,,---,0.00,VWS V14.01,2013-07-23 04:46:00,
2013-07-23 00:51:00,73.5,73.5,29.69,North,359,0.0,0.0,100,0.00,,---,0.00,VWS V14.01,2013-07-23 04:51:00,
2013-07-23 00:56:00,74.0,74.0,29.70,North,359,0.0,0.0,100,0.00,,---,0.00,VWS V14.01,2013-07-23 04:56:00,
2013-07-23 01:01:00,73.8,73.8,29.69,North,359,0.0,0.0,100,13.36,,---,0.00,VWS V14.01,2013-07-23 05:01:00,
2013-07-23 01:05:00,73.6,73.6,29.69,North,359,0.0,0.0,100,0.00,,---,0.00,VWS V14.01,2013-07-23 05:05:00,
2013-07-23 01:10:00,73.7,73.7,29.69,North,359,0.0,0.0,100,0.00,,---,0.00,VWS V14.01,2013-07-23 05:10:00,
2013-07-23 01:12:00,73.5,73.5,29.68,North,359,0.0,0.0,100,0.00,,---,0.00,VWS V14.01,2013-07-23 05:12:00,
2013-07-23 01:15:00,73.4,73.4,29.69,North,359,0.0,0.0,100,0.00,,---,0.00,VWS V14.01,2013-07-23 05:15:00,
2013-07-23 01:20:00,73.1,73.1,29.69,North,359,0.0,0.0,100,0.00,,---,0.00,VWS V14.01,2013-07-23 05:20:00,
2013-07-23 01:25:00,73.8,73.8,29.68,North,359,0.0,0.0,100,0.00,,---,0.00,VWS V14.01,2013-07-23 05:25:00,
2013-07-23 01:30:00,73.9,73.9,29.68,North,359,0.0,0.0,100,0.00,,---,0.00,VWS V14.01,2013-07-23 05:30:00,
2013-07-23 01:35:00,73.3,73.3,29.68,North,359,0.0,0.0,100,13.37,,---,0.00,VWS V14.01,2013-07-23 05:35:00,
2013-07-23 01:40:00,73.6,73.6,29.68,North,359,0.0,0.0,100,0.00,,---,0.00,VWS V14.01,2013-07-23 05:40:00,
2013-07-23 01:45:00,72.7,72.7,29.68,North,359,0.0,0.0,100,0.00,,---,0.00,VWS V14.01,2013-07-23 05:45:00,
2013-07-23 01:50:00,73.2,73.2,29.67,North,359,0.0,0.0,100,0.01,,---,0.01,VWS V14.01,2013-07-23 05:50:00,
2013-07-23 01:55:00,73.0,73.0,29.67,North,359,0.0,0.0,100,0.01,,---,0.01,VWS V14.01,2013-07-23 05:55:00,
2013-07-23 02:00:00,73.3,73.3,29.66,North,359,0.0,0.0,100,13.38,,---,0.01,VWS V14.01,2013-07-23 06:00:00,
2013-07-23 02:05:00,73.2,73.2,29.66,North,359,0.0,0.0,100,0.01,,---,0.01,VWS V14.01,2013-07-23 06:05:00,
2013-07-23 02:10:00,74.1,74.1,29.66,North,359,0.0,0.0,100,0.00,,---,0.01,VWS V14.01,2013-07-23 06:10:00,
2013-07-23 02:15:00,74.1,74.1,29.66,North,359,0.0,0.0,100,0.01,,---,0.01,VWS V14.01,2013-07-23 06:15:00,
2013-07-23 02:20:00,73.7,73.7,29.66,North,359,0.0,0.0,100,0.01,,---,0.01,VWS V14.01,2013-07-23 06:20:00,
2013-07-23 02:25:00,73.6,73.6,29.66,North,359,0.0,0.0,100,0.01,,---,0.01,VWS V14.01,2013-07-23 06:25:00,
2013-07-23 02:30:00,73.7,73.7,29.66,North,359,0.0,0.0,100,0.01,,---,0.01,VWS V14.01,2013-07-23 06:30:00,
2013-07-23 02:35:00,73.7,73.7,29.65,North,359,0.0,0.0,100,0.00,,---,0.01,VWS V14.01,2013-07-23 06:35:00,
2013-07-23 02:40:00,74.2,74.2,29.65,North,359,0.0,0.0,100,0.01,,---,0.01,VWS V14.01,2013-07-23 06:40:00,
2013-07-23 02:45:00,73.8,73.8,29.65,North,359,0.0,0.0,100,0.01,,---,0.01,VWS V14.01,2013-07-23 06:45:00,
2013-07-23 02:50:00,72.6,72.6,29.64,North,359,0.0,0.0,100,0.00,,---,0.01,VWS V14.01,2013-07-23 06:50:00,
2013-07-23 02:55:00,74.2,74.2,29.65,North,359,0.0,0.0,100,0.00,,---,0.01,VWS V14.01,2013-07-23 06:55:00,
2013-07-23 03:00:00,73.0,73.0,29.65,North,359,0.0,0.0,100,0.00,,---,0.01,VWS V14.01,2013-07-23 07:00:00,
2013-07-23 03:05:00,73.4,73.4,29.65,North,359,0.0,0.0,100,0.00,,---,0.01,VWS V14.01,2013-07-23 07:05:00,
2013-07-23 03:10:00,73.3,73.3,29.65,North,359,0.0,0.0,100,0.00,,---,0.01,VWS V14.01,2013-07-23 07:10:00,
2013-07-23 03:15:00,73.3,73.3,29.65,North,359,0.0,0.0,100,0.00,,---,0.01,VWS V14.01,2013-07-23 07:15:00,
2013-07-23 03:20:00,73.3,73.3,29.65,North,359,0.0,0.0,100,0.00,,---,0.01,VWS V14.01,2013-07-23 07:20:00,
2013-07-23 03:25:00,74.0,74.0,29.64,North,359,0.0,0.0,100,0.00,,---,0.01,VWS V14.01,2013-07-23 07:25:00,
2013-07-23 03:30:00,73.2,73.2,29.64,North,359,0.0,0.0,100,0.00,,---,0.01,VWS V14.01,2013-07-23 07:30:00,
2013-07-23 03:35:00,74.2,74.2,29.64,North,359,0.0,0.0,100,0.00,,---,0.01,VWS V14.01,2013-07-23 07:35:00,
2013-07-23 03:40:00,73.4,73.4,29.64,North,359,0.0,0.0,100,0.00,,---,0.01,VWS V14.01,2013-07-23 07:40:00,
2013-07-23 03:45:00,73.6,73.6,29.64,North,359,0.0,0.0,100,0.00,,---,0.01,VWS V14.01,2013-07-23 07:45:00,
2013-07-23 03:50:00,73.8,73.8,29.64,North,359,0.0,0.0,100,0.00,,---,0.01,VWS V14.01,2013-07-23 07:50:00,
2013-07-23 03:55:00,73.9,73.9,29.64,North,359,0.0,0.0,100,0.00,,---,0.01,VWS V14.01,2013-07-23 07:55:00,
2013-07-23 04:00:00,73.0,73.0,29.64,North,359,0.2,0.2,100,0.00,,---,0.01,VWS V14.01,2013-07-23 08:00:00,
2013-07-23 04:05:00,70.5,70.5,29.64,North,359,0.0,0.0,100,0.00,,---,0.01,VWS V14.01,2013-07-23 08:05:00,
2013-07-23 04:10:00,68.9,68.9,29.64,North,359,0.0,0.0,100,0.00,,---,0.01,VWS V14.01,2013-07-23 08:10:00,
2013-07-23 04:15:00,69.4,69.4,29.64,North,359,0.0,0.0,100,0.00,,---,0.01,VWS V14.01,2013-07-23 08:15:00,
2013-07-23 04:20:00,68.8,68.8,29.64,North,359,0.0,0.0,100,0.00,,---,0.01,VWS V14.01,2013-07-23 08:20:00,
2013-07-23 04:25:00,68.2,68.2,29.64,North,359,0.0,0.0,100,0.00,,---,0.01,VWS V14.01,2013-07-23 08:25:00,
2013-07-23 04:30:00,68.6,68.6,29.64,North,359,0.0,0.0,100,0.00,,---,0.01,VWS V14.01,2013-07-23 08:30:00,
2013-07-23 04:35:00,68.6,68.6,29.63,North,359,0.0,0.0,100,0.00,,---,0.01,VWS V14.01,2013-07-23 08:35:00,
2013-07-23 04:40:00,68.1,68.1,29.63,North,359,0.0,0.0,100,0.00,,---,0.01,VWS V14.01,2013-07-23 08:40:00,
2013-07-23 04:45:00,68.5,68.5,29.63,North,359,0.0,0.0,100,0.00,,---,0.01,VWS V14.01,2013-07-23 08:45:00,
2013-07-23 04:50:00,68.4,68.4,29.63,North,359,0.0,0.0,100,0.00,,---,0.01,VWS V14.01,2013-07-23 08:50:00,
2013-07-23 04:55:00,68.5,68.5,29.62,North,359,0.0,0.0,100,0.00,,---,0.01,VWS V14.01,2013-07-23 08:55:00,
2013-07-23 05:00:00,69.2,69.2,29.62,North,359,0.0,0.0,100,0.00,,---,0.01,VWS V14.01,2013-07-23 09:00:00,
2013-07-23 05:05:00,68.4,68.4,29.63,North,359,0.0,0.0,100,0.00,,---,0.01,VWS V14.01,2013-07-23 09:05:00,
2013-07-23 05:10:00,68.7,68.7,29.63,North,359,0.0,0.0,100,0.01,,---,0.02,VWS V14.01,2013-07-23 09:10:00,
2013-07-23 05:15:00,68.8,68.8,29.63,North,359,0.0,0.0,100,0.01,,---,0.02,VWS V14.01,2013-07-23 09:15:00,
2013-07-23 05:20:00,69.4,69.4,29.62,North,359,0.0,0.0,100,0.01,,---,0.02,VWS V14.01,2013-07-23 09:20:00,
2013-07-23 05:25:00,69.3,69.3,29.62,North,359,0.0,0.0,100,0.01,,---,0.02,VWS V14.01,2013-07-23 09:25:00,
2013-07-23 05:30:00,68.9,68.9,29.61,North,359,0.0,0.0,100,0.00,,---,0.02,VWS V14.01,2013-07-23 09:30:00,
2013-07-23 05:35:00,68.9,68.9,29.61,North,359,0.0,0.0,100,0.01,,---,0.02,VWS V14.01,2013-07-23 09:35:00,
2013-07-23 05:40:00,68.8,68.8,29.62,North,359,0.0,0.0,100,0.01,,---,0.02,VWS V14.01,2013-07-23 09:40:00,
2013-07-23 05:45:00,68.9,68.9,29.62,North,359,0.0,0.0,100,0.01,,---,0.02,VWS V14.01,2013-07-23 09:45:00,
2013-07-23 05:50:00,69.1,69.1,29.62,North,359,0.0,0.0,100,0.01,,---,0.02,VWS V14.01,2013-07-23 09:50:00,
2013-07-23 05:55:00,69.2,69.2,29.62,North,359,0.0,0.0,100,0.00,,---,0.02,VWS V14.01,2013-07-23 09:55:00,
2013-07-23 06:00:00,68.6,68.6,29.61,North,359,0.0,0.0,100,0.01,,---,0.02,VWS V14.01,2013-07-23 10:00:00,
2013-07-23 06:05:00,68.8,68.8,29.61,North,359,0.0,0.0,100,0.01,,---,0.02,VWS V14.01,2013-07-23 10:05:00,
2013-07-23 06:10:00,70.0,70.0,29.61,North,359,0.0,0.0,100,0.00,,---,0.02,VWS V14.01,2013-07-23 10:10:00,
2013-07-23 06:15:00,68.7,68.7,29.61,North,359,0.0,0.0,100,0.00,,---,0.02,VWS V14.01,2013-07-23 10:15:00,
2013-07-23 06:20:00,69.0,69.0,29.61,North,359,0.0,0.0,100,0.00,,---,0.02,VWS V14.01,2013-07-23 10:20:00,
2013-07-23 06:25:00,69.2,69.2,29.61,North,359,0.0,0.0,100,0.00,,---,0.02,VWS V14.01,2013-07-23 10:25:00,
2013-07-23 06:30:00,68.5,68.5,29.61,North,359,0.0,0.0,100,0.01,,---,0.03,VWS V14.01,2013-07-23 10:30:00,
2013-07-23 06:35:00,68.9,68.9,29.61,North,359,0.0,0.0,100,0.01,,---,0.03,VWS V14.01,2013-07-23 10:35:00,
2013-07-23 06:40:00,69.8,69.8,29.61,North,359,0.0,0.0,100,0.01,,---,0.03,VWS V14.01,2013-07-23 10:40:00,
2013-07-23 06:45:00,69.4,69.4,29.61,North,359,0.0,0.0,100,0.00,,---,0.03,VWS V14.01,2013-07-23 10:45:00,
2013-07-23 06:50:00,69.0,69.0,29.61,North,359,0.0,0.0,100,0.01,,---,0.03,VWS V14.01,2013-07-23 10:50:00,
2013-07-23 06:55:00,69.5,69.5,29.61,North,359,0.0,0.0,100,0.01,,---,0.03,VWS V14.01,2013-07-23 10:55:00,
2013-07-23 07:00:00,69.9,69.9,29.61,North,359,0.0,0.0,100,54.88,,---,0.04,VWS V14.01,2013-07-23 11:00:00,
2013-07-23 07:05:00,68.8,68.8,29.61,North,359,0.0,0.0,100,0.02,,---,0.04,VWS V14.01,2013-07-23 11:05:00,
2013-07-23 07:10:00,69.5,69.5,29.61,North,359,0.0,0.0,100,0.00,,---,0.04,VWS V14.01,2013-07-23 11:10:00,
2013-07-23 07:15:00,70.1,70.1,29.61,North,359,0.0,0.0,100,0.02,,---,0.04,VWS V14.01,2013-07-23 11:15:00,
2013-07-23 07:20:00,69.4,69.4,29.61,North,359,0.0,0.0,100,0.02,,---,0.04,VWS V14.01,2013-07-23 11:20:00,
2013-07-23 07:24:00,69.5,69.5,29.61,North,359,0.0,0.0,100,0.02,,---,0.04,VWS V14.01,2013-07-23 11:24:00,
2013-07-23 07:29:00,70.4,70.4,29.61,North,359,0.0,0.0,100,0.01,,---,0.04,VWS V14.01,2013-07-23 11:29:00,
2013-07-23 07:34:00,70.5,70.5,29.61,West,278,1.4,7.4,100,0.00,,---,0.05,VWS V14.01,2013-07-23 11:34:00,
2013-07-23 07:39:00,70.7,70.7,29.61,West,278,0.0,0.0,100,0.02,,---,0.05,VWS V14.01,2013-07-23 11:39:00,
2013-07-23 07:44:00,71.3,71.3,29.61,WNW,290,0.0,0.0,100,0.02,,---,0.05,VWS V14.01,2013-07-23 11:44:00,
2013-07-23 07:49:00,71.2,71.2,29.61,WNW,290,0.0,0.0,100,0.02,,---,0.05,VWS V14.01,2013-07-23 11:49:00,
2013-07-23 07:54:00,71.2,71.2,29.61,WNW,290,0.0,0.0,100,0.02,,---,0.05,VWS V14.01,2013-07-23 11:54:00,
2013-07-23 07:59:00,70.7,70.7,29.61,North,11,0.0,3.2,100,0.00,,---,0.05,VWS V14.01,2013-07-23 11:59:00,
2013-07-23 08:04:00,70.7,70.7,29.60,North,359,0.0,0.0,100,0.01,,---,0.05,VWS V14.01,2013-07-23 12:04:00,
2013-07-23 08:09:00,71.5,71.5,29.60,WSW,242,0.0,0.0,100,0.02,,---,0.06,VWS V14.01,2013-07-23 12:09:00,
2013-07-23 08:14:00,71.8,71.8,29.60,WSW,242,0.0,0.0,100,54.90,,---,0.06,VWS V14.01,2013-07-23 12:14:00,
2013-07-23 08:19:00,72.1,72.1,29.60,NW,308,0.0,0.0,100,0.02,,---,0.06,VWS V14.01,2013-07-23 12:19:00,
2013-07-23 08:24:00,71.7,71.7,29.60,North,359,0.0,6.7,100,0.00,,---,0.06,VWS V14.01,2013-07-23 12:24:00,
2013-07-23 08:29:00,71.3,71.3,29.59,South,187,0.0,0.0,100,0.02,,---,0.06,VWS V14.01,2013-07-23 12:29:00,
2013-07-23 08:34:00,71.5,71.5,29.59,North,359,5.0,9.6,100,0.02,,---,0.06,VWS V14.01,2013-07-23 12:34:00,
2013-07-23 08:39:00,73.1,73.1,29.59,WSW,238,5.5,9.1,100,0.01,,---,0.06,VWS V14.01,2013-07-23 12:39:00,
2013-07-23 08:44:00,72.7,72.7,29.59,West,262,7.6,11.6,100,0.01,,---,0.06,VWS V14.01,2013-07-23 12:44:00,
2013-07-23 08:49:00,72.3,72.3,29.59,WSW,248,2.4,8.3,100,0.01,,---,0.06,VWS V14.01,2013-07-23 12:49:00,
2013-07-23 08:54:00,72.9,72.9,29.59,South,174,1.6,4.9,100,0.01,,---,0.06,VWS V14.01,2013-07-23 12:54:00,
2013-07-23 08:59:00,72.5,72.5,29.59,SSW,207,0.0,0.0,100,0.01,,---,0.06,VWS V14.01,2013-07-23 12:59:00,
2013-07-23 09:04:00,72.1,72.1,29.58,SSW,207,0.0,0.0,100,0.01,,---,0.06,VWS V14.01,2013-07-23 13:04:00,
2013-07-23 09:09:00,72.2,72.2,29.58,SSW,207,0.0,0.0,100,0.00,,---,0.06,VWS V14.01,2013-07-23 13:09:00,
2013-07-23 09:14:00,71.9,71.8,29.58,SSW,207,0.0,0.0,100,54.90,,---,0.06,VWS V14.01,2013-07-23 13:14:00,
2013-07-23 09:19:00,72.8,72.6,29.58,SSW,207,0.0,0.0,99,0.00,,---,0.06,VWS V14.01,2013-07-23 13:19:00,
2013-07-23 09:24:00,72.5,71.9,29.58,SSW,207,0.0,0.0,98,0.00,,---,0.06,VWS V14.01,2013-07-23 13:24:00,
2013-07-23 09:29:00,73.6,73.1,29.58,SSW,207,0.0,0.0,98,0.00,,---,0.06,VWS V14.01,2013-07-23 13:29:00,
2013-07-23 09:34:00,73.6,72.8,29.58,SSW,207,0.0,0.0,97,0.00,,---,0.06,VWS V14.01,2013-07-23 13:34:00,
2013-07-23 09:39:00,73.4,72.5,29.58,SSW,207,0.0,0.0,97,0.00,,---,0.06,VWS V14.01,2013-07-23 13:39:00,
2013-07-23 09:44:00,73.8,72.8,29.58,SSW,207,0.0,0.0,96,0.00,,---,0.06,VWS V14.01,2013-07-23 13:44:00,
2013-07-23 09:49:00,73.8,72.4,29.58,SSW,207,0.0,0.0,95,0.01,,---,0.07,VWS V14.01,2013-07-23 13:49:00,
2013-07-23 09:54:00,74.5,73.0,29.58,SSW,207,0.0,0.0,95,0.01,,---,0.07,VWS V14.01,2013-07-23 13:54:00,
2013-07-23 09:59:00,75.3,72.8,29.58,NW,315,3.1,4.3,92,0.01,,---,0.07,VWS V14.01,2013-07-23 13:59:00,
2013-07-23 10:04:00,75.2,71.3,29.58,North,359,0.0,0.0,88,0.01,,---,0.07,VWS V14.01,2013-07-23 14:04:00,
2013-07-23 10:09:00,75.0,70.9,29.58,North,359,0.0,0.0,87,0.01,,---,0.07,VWS V14.01,2013-07-23 14:09:00,
2013-07-23 10:14:00,75.0,70.9,29.58,North,359,0.0,0.0,87,54.91,,---,0.07,VWS V14.01,2013-07-23 14:14:00,
2013-07-23 10:19:00,75.6,70.0,29.58,North,359,0.0,0.0,83,0.01,,---,0.07,VWS V14.01,2013-07-23 14:19:00,
2013-07-23 10:24:00,75.9,70.8,29.58,North,359,0.0,0.0,84,0.01,,---,0.07,VWS V14.01,2013-07-23 14:24:00,
2013-07-23 10:29:00,76.2,71.0,29.58,North,359,0.0,0.0,84,0.01,,---,0.07,VWS V14.01,2013-07-23 14:29:00,
2013-07-23 10:34:00,76.1,71.0,29.58,North,359,0.0,0.0,84,0.01,,---,0.07,VWS V14.01,2013-07-23 14:34:00,
2013-07-23 10:39:00,76.4,70.8,29.57,North,359,0.0,0.0,83,0.01,,---,0.07,VWS V14.01,2013-07-23 14:39:00,
2013-07-23 10:44:00,77.2,70.7,29.58,North,359,0.0,0.0,80,0.01,,---,0.07,VWS V14.01,2013-07-23 14:44:00,
2013-07-23 10:49:00,77.2,70.3,29.58,North,359,0.0,0.0,79,0.00,,---,0.07,VWS V14.01,2013-07-23 14:49:00,
2013-07-23 10:54:00,77.8,70.7,29.58,North,359,0.0,0.0,79,0.00,,---,0.07,VWS V14.01,2013-07-23 14:54:00,
2013-07-23 10:59:00,77.9,70.2,29.58,North,359,0.0,0.0,77,0.00,,---,0.07,VWS V14.01,2013-07-23 14:59:00,
2013-07-23 11:04:00,78.0,69.8,29.58,North,359,0.0,0.0,76,0.00,,---,0.07,VWS V14.01,2013-07-23 15:04:00,
2013-07-23 11:09:00,77.9,70.2,29.58,North,359,0.0,0.0,77,0.00,,---,0.07,VWS V14.01,2013-07-23 15:09:00,
2013-07-23 11:14:00,78.4,71.2,29.58,North,359,0.0,0.0,78,54.91,,---,0.07,VWS V14.01,2013-07-23 15:14:00,
2013-07-23 11:19:00,78.1,70.2,29.58,North,359,0.0,0.0,77,0.00,,---,0.07,VWS V14.01,2013-07-23 15:19:00,
2013-07-23 11:24:00,78.7,70.1,29.58,North,359,0.0,0.0,75,0.00,,---,0.07,VWS V14.01,2013-07-23 15:24:00,
2013-07-23 11:29:00,79.1,70.4,29.58,North,359,0.0,0.0,75,0.00,,---,0.07,VWS V14.01,2013-07-23 15:29:00,
2013-07-23 11:34:00,78.0,69.1,29.58,North,359,0.0,0.0,74,0.00,,---,0.07,VWS V14.01,2013-07-23 15:34:00,
2013-07-23 11:39:00,78.2,69.7,29.57,North,359,0.0,0.0,75,0.00,,---,0.07,VWS V14.01,2013-07-23 15:39:00,
2013-07-23 11:44:00,78.7,70.2,29.57,North,359,0.0,0.0,75,0.00,,---,0.07,VWS V14.01,2013-07-23 15:44:00,
2013-07-23 11:49:00,78.3,70.2,29.57,North,359,0.0,0.0,76,0.00,,---,0.07,VWS V14.01,2013-07-23 15:49:00,
2013-07-23 11:54:00,78.5,68.6,29.57,North,359,0.0,0.0,72,0.00,,---,0.07,VWS V14.01,2013-07-23 15:54:00,
2013-07-23 11:59:00,78.5,69.4,29.57,North,359,0.0,0.0,74,0.01,,---,0.08,VWS V14.01,2013-07-23 15:59:00,
2013-07-23 12:04:00,79.1,70.7,29.57,North,359,0.0,0.0,75,0.01,,---,0.08,VWS V14.01,2013-07-23 16:04:00,
2013-07-23 12:09:00,78.2,70.5,29.57,North,359,0.0,0.0,77,0.01,,---,0.08,VWS V14.01,2013-07-23 16:09:00,
2013-07-23 12:14:00,78.7,70.5,29.57,North,359,0.0,0.0,76,54.92,,---,0.08,VWS V14.01,2013-07-23 16:14:00,
2013-07-23 12:19:00,80.0,70.4,29.57,North,359,0.0,0.0,73,0.01,,---,0.08,VWS V14.01,2013-07-23 16:19:00,
2013-07-23 12:24:00,79.9,70.4,29.57,North,359,0.0,0.0,73,0.01,,---,0.08,VWS V14.01,2013-07-23 16:24:00,
2013-07-23 12:29:00,79.8,70.7,29.57,North,359,0.0,0.0,74,0.01,,---,0.08,VWS V14.01,2013-07-23 16:29:00,
2013-07-23 12:34:00,80.7,71.6,29.57,North,359,0.0,0.0,74,0.01,,---,0.08,VWS V14.01,2013-07-23 16:34:00,
2013-07-23 12:39:00,80.5,70.4,29.57,North,359,0.0,0.0,72,0.01,,---,0.08,VWS V14.01,2013-07-23 16:39:00,
2013-07-23 12:44:00,80.7,69.8,29.57,North,359,0.0,0.0,69,0.01,,---,0.08,VWS V14.01,2013-07-23 16:44:00,
2013-07-23 12:49:00,80.9,69.7,29.57,North,359,0.0,0.0,69,0.01,,---,0.08,VWS V14.01,2013-07-23 16:49:00,
2013-07-23 12:54:00,80.6,69.8,29.57,North,359,0.0,0.0,70,0.01,,---,0.08,VWS V14.01,2013-07-23 16:54:00,
2013-07-23 12:59:00,81.6,69.4,29.57,North,359,0.0,0.0,66,0.00,,---,0.08,VWS V14.01,2013-07-23 16:59:00,
2013-07-23 13:04:00,80.9,69.1,29.57,North,359,0.0,0.0,68,0.00,,---,0.08,VWS V14.01,2013-07-23 17:04:00,
2013-07-23 13:09:00,80.3,67.8,29.56,North,359,0.0,0.0,66,0.00,,---,0.08,VWS V14.01,2013-07-23 17:09:00,
2013-07-23 13:14:00,80.8,67.7,29.56,North,359,0.0,0.0,64,54.92,,---,0.08,VWS V14.01,2013-07-23 17:14:00,
2013-07-23 13:19:00,80.9,67.8,29.56,North,359,0.0,0.0,64,0.00,,---,0.08,VWS V14.01,2013-07-23 17:19:00,
2013-07-23 13:24:00,81.4,67.7,29.56,North,359,0.0,0.0,63,0.00,,---,0.09,VWS V14.01,2013-07-23 17:24:00,
2013-07-23 13:29:00,81.4,67.7,29.56,North,359,0.0,0.0,63,0.01,,---,0.09,VWS V14.01,2013-07-23 17:29:00,
2013-07-23 13:33:00,80.9,67.3,29.56,North,359,0.0,0.0,63,0.01,,---,0.09,VWS V14.01,2013-07-23 17:33:00,
2013-07-23 13:38:00,81.4,67.7,29.55,North,359,0.0,0.0,63,0.01,,---,0.09,VWS V14.01,2013-07-23 17:38:00,
2013-07-23 13:43:00,80.7,67.7,29.56,North,359,0.0,0.0,65,0.01,,---,0.09,VWS V14.01,2013-07-23 17:43:00,
2013-07-23 13:48:00,81.4,67.7,29.55,North,359,0.0,0.0,63,0.01,,---,0.09,VWS V14.01,2013-07-23 17:48:00,
2013-07-23 13:53:00,81.3,67.3,29.55,North,359,0.0,0.0,62,0.01,,---,0.09,VWS V14.01,2013-07-23 17:53:00,
2013-07-23 13:58:00,81.6,67.1,29.55,North,359,0.0,0.0,61,0.01,,---,0.09,VWS V14.01,2013-07-23 17:58:00,
2013-07-23 14:03:00,80.8,65.7,29.55,North,359,0.0,0.0,60,0.01,,---,0.09,VWS V14.01,2013-07-23 18:03:00,
2013-07-23 14:09:00,81.9,67.1,29.55,North,359,0.0,0.0,61,0.01,,---,0.09,VWS V14.01,2013-07-23 18:09:00,
2013-07-23 14:14:00,82.1,66.6,29.55,North,359,0.0,0.0,59,54.93,,---,0.09,VWS V14.01,2013-07-23 18:14:00,
2013-07-23 14:19:00,81.3,66.1,29.54,North,359,0.0,0.0,60,0.02,,---,0.10,VWS V14.01,2013-07-23 18:19:00,
2013-07-23 14:24:00,81.5,66.6,29.54,North,359,0.0,0.0,61,0.01,,---,0.10,VWS V14.01,2013-07-23 18:24:00,
2013-07-23 14:29:00,82.0,64.8,29.54,North,359,0.0,0.0,56,0.01,,---,0.10,VWS V14.01,2013-07-23 18:29:00,
2013-07-23 14:34:00,83.3,66.7,29.55,North,359,0.0,0.0,57,0.00,,---,0.10,VWS V14.01,2013-07-23 18:34:00,
2013-07-23 14:40:00,82.4,67.2,29.54,North,359,0.0,0.0,60,0.01,,---,0.10,VWS V14.01,2013-07-23 18:40:00,
2013-07-23 14:45:00,83.2,67.2,29.54,North,359,0.0,0.0,59,0.02,,---,0.11,VWS V14.01,2013-07-23 18:45:00,
2013-07-23 14:50:00,83.5,66.1,29.54,North,359,0.0,0.0,56,0.02,,---,0.11,VWS V14.01,2013-07-23 18:50:00,
2013-07-23 14:55:00,83.8,67.6,29.54,North,359,0.0,0.0,58,0.02,,---,0.11,VWS V14.01,2013-07-23 18:55:00,
2013-07-23 15:00:00,84.1,67.5,29.54,North,359,0.0,0.0,58,54.95,,---,0.11,VWS V14.01,2013-07-23 19:00:00,
2013-07-23 15:05:00,83.0,66.2,29.54,North,359,0.0,0.0,57,0.02,,---,0.11,VWS V14.01,2013-07-23 19:05:00,
2013-07-23 15:10:00,82.2,65.7,29.54,NNE,15,12.3,12.3,58,0.02,,---,0.11,VWS V14.01,2013-07-23 19:10:00,
2013-07-23 15:15:00,83.0,66.1,29.54,North,359,0.0,0.0,57,0.02,,---,0.11,VWS V14.01,2013-07-23 19:15:00,
2013-07-23 15:20:00,82.8,65.9,29.54,North,359,0.0,0.0,57,0.01,,---,0.11,VWS V14.01,2013-07-23 19:20:00,
2013-07-23 15:25:00,82.5,65.9,29.53,North,359,0.0,0.0,57,0.01,,---,0.11,VWS V14.01,2013-07-23 19:25:00,
2013-07-23 15:30:00,83.9,68.1,29.53,North,359,0.0,0.0,59,0.01,,---,0.11,VWS V14.01,2013-07-23 19:30:00,
2013-07-23 15:35:00,83.0,66.5,29.53,North,359,0.0,0.0,58,54.95,,---,0.11,VWS V14.01,2013-07-23 19:35:00,
2013-07-23 15:40:00,84.1,68.5,29.53,North,359,0.0,0.0,60,0.01,,---,0.11,VWS V14.01,2013-07-23 19:40:00,
2013-07-23 15:45:00,83.7,67.0,29.53,North,359,0.0,0.0,57,0.00,,---,0.11,VWS V14.01,2013-07-23 19:45:00,
2013-07-23 15:50:00,84.4,67.4,29.53,North,359,0.0,0.0,57,0.00,,---,0.11,VWS V14.01,2013-07-23 19:50:00,
2013-07-23 15:56:00,84.4,67.2,29.53,North,359,0.0,0.0,56,0.00,,---,0.12,VWS V14.01,2013-07-23 19:56:00,
2013-07-23 16:01:00,83.6,66.8,29.53,West,264,0.0,0.0,57,0.01,,---,0.12,VWS V14.01,2013-07-23 20:01:00,
2013-07-23 16:06:00,83.2,65.9,29.53,West,264,0.4,0.4,56,0.01,,---,0.12,VWS V14.01,2013-07-23 20:06:00,
2013-07-23 16:11:00,83.4,66.3,29.52,West,264,0.0,0.0,56,0.01,,---,0.12,VWS V14.01,2013-07-23 20:11:00,
2013-07-23 16:16:00,82.9,65.8,29.52,West,264,0.0,0.0,56,0.01,,---,0.12,VWS V14.01,2013-07-23 20:16:00,
2013-07-23 16:21:00,83.5,66.8,29.52,West,264,0.0,0.0,57,0.01,,---,0.12,VWS V14.01,2013-07-23 20:21:00,
2013-07-23 16:26:00,83.6,67.4,29.52,West,264,0.0,0.0,58,0.01,,---,0.12,VWS V14.01,2013-07-23 20:26:00,
2013-07-23 16:31:00,82.8,66.0,29.52,West,264,0.0,0.0,57,0.01,,---,0.12,VWS V14.01,2013-07-23 20:31:00,
2013-07-23 16:36:00,84.6,68.8,29.51,West,264,0.0,0.0,59,0.01,,---,0.12,VWS V14.01,2013-07-23 20:36:00,
2013-07-23 16:41:00,83.7,67.1,29.51,North,359,0.0,0.0,57,0.01,,---,0.12,VWS V14.01,2013-07-23 20:41:00,
2013-07-23 16:46:00,84.4,68.6,29.51,North,359,0.0,0.0,59,0.01,,---,0.12,VWS V14.01,2013-07-23 20:46:00,
2013-07-23 16:51:00,83.9,67.8,29.51,North,359,0.0,0.0,58,0.01,,---,0.12,VWS V14.01,2013-07-23 20:51:00,
2013-07-23 16:56:00,83.2,67.2,29.52,North,359,0.0,0.0,59,0.00,,---,0.12,VWS V14.01,2013-07-23 20:56:00,
2013-07-23 17:01:00,82.0,67.5,29.52,North,359,0.0,0.0,62,0.00,,---,0.12,VWS V14.01,2013-07-23 21:01:00,
2013-07-23 17:06:00,83.0,68.5,29.52,North,359,0.0,0.0,62,0.00,,---,0.12,VWS V14.01,2013-07-23 21:06:00,
2013-07-23 17:11:00,81.7,67.2,29.52,North,359,0.0,0.0,62,0.00,,---,0.12,VWS V14.01,2013-07-23 21:11:00,
2013-07-23 17:16:00,81.3,67.1,29.52,North,359,0.0,0.0,62,0.00,,---,0.12,VWS V14.01,2013-07-23 21:16:00,
2013-07-23 17:21:00,80.6,66.3,29.52,North,359,0.0,9.5,62,0.00,,---,0.12,VWS V14.01,2013-07-23 21:21:00,
2013-07-23 17:26:00,80.0,65.4,29.53,North,359,0.0,0.0,61,0.00,,---,0.12,VWS V14.01,2013-07-23 21:26:00,
2013-07-23 17:31:00,78.4,65.9,29.53,North,359,0.0,0.0,66,0.00,,---,0.12,VWS V14.01,2013-07-23 21:31:00,
2013-07-23 17:36:00,77.7,67.0,29.52,North,359,0.0,0.0,70,0.00,,---,0.12,VWS V14.01,2013-07-23 21:36:00,
2013-07-23 17:41:00,77.4,67.8,29.52,North,359,0.0,0.0,72,0.00,,---,0.12,VWS V14.01,2013-07-23 21:41:00,
2013-07-23 17:46:00,77.5,68.4,29.52,North,359,0.0,0.0,74,0.00,,---,0.12,VWS V14.01,2013-07-23 21:46:00,
2013-07-23 17:51:00,77.2,68.3,29.52,North,359,0.0,0.0,74,0.00,,---,0.12,VWS V14.01,2013-07-23 21:51:00,
2013-07-23 17:56:00,76.5,67.9,29.52,North,359,0.0,0.0,75,0.00,,---,0.12,VWS V14.01,2013-07-23 21:56:00,
2013-07-23 18:01:00,77.4,68.8,29.52,North,359,0.0,0.0,75,0.00,,---,0.12,VWS V14.01,2013-07-23 22:01:00,
2013-07-23 18:07:00,77.3,68.3,29.52,North,359,0.0,0.0,74,54.96,,---,0.12,VWS V14.01,2013-07-23 22:07:00,
2013-07-23 18:11:00,78.0,69.1,29.52,North,359,0.0,0.0,74,0.00,,---,0.12,VWS V14.01,2013-07-23 22:11:00,
2013-07-23 18:17:00,78.4,69.2,29.52,North,359,0.0,0.0,74,0.00,,---,0.12,VWS V14.01,2013-07-23 22:17:00,
2013-07-23 18:22:00,78.4,69.2,29.52,North,359,0.0,0.0,73,0.00,,---,0.12,VWS V14.01,2013-07-23 22:22:00,
2013-07-23 18:27:00,77.9,69.0,29.51,North,359,0.0,0.0,74,0.00,,---,0.12,VWS V14.01,2013-07-23 22:27:00,
2013-07-23 18:32:00,78.2,69.9,29.52,North,359,0.0,0.0,76,0.00,,---,0.12,VWS V14.01,2013-07-23 22:32:00,
2013-07-23 18:37:00,77.3,69.5,29.51,North,359,0.0,0.0,77,0.00,,---,0.12,VWS V14.01,2013-07-23 22:37:00,
2013-07-23 18:42:00,77.1,70.4,29.51,North,359,0.0,0.0,80,0.00,,---,0.12,VWS V14.01,2013-07-23 22:42:00,
2013-07-23 18:47:00,76.2,69.9,29.52,North,359,0.0,0.0,81,0.00,,---,0.12,VWS V14.01,2013-07-23 22:47:00,
2013-07-23 18:52:00,75.9,70.3,29.51,North,359,0.0,0.0,83,0.00,,---,0.12,VWS V14.01,2013-07-23 22:52:00,
2013-07-23 18:57:00,75.8,70.4,29.51,North,359,0.0,0.0,83,0.00,,---,0.12,VWS V14.01,2013-07-23 22:57:00,
2013-07-23 19:02:00,75.9,70.6,29.52,North,359,0.0,0.0,84,0.00,,---,0.12,VWS V14.01,2013-07-23 23:02:00,
2013-07-23 19:07:00,76.1,70.2,29.52,North,359,0.0,0.0,82,54.96,,---,0.12,VWS V14.01,2013-07-23 23:07:00,
2013-07-23 19:12:00,75.7,69.9,29.52,North,359,0.0,0.0,82,0.00,,---,0.12,VWS V14.01,2013-07-23 23:12:00,
2013-07-23 19:17:00,76.0,70.3,29.52,North,359,0.0,0.0,82,0.00,,---,0.12,VWS V14.01,2013-07-23 23:17:00,
2013-07-23 19:22:00,76.2,70.7,29.52,North,359,0.0,0.0,83,0.00,,---,0.12,VWS V14.01,2013-07-23 23:22:00,
2013-07-23 19:27:00,75.8,70.4,29.52,North,359,0.0,0.0,83,0.00,,---,0.12,VWS V14.01,2013-07-23 23:27:00,
2013-07-23 19:32:00,75.6,70.2,29.52,North,359,0.0,0.0,83,0.00,,---,0.12,VWS V14.01,2013-07-23 23:32:00,
2013-07-23 19:38:00,76.0,70.5,29.52,North,359,0.0,0.0,83,0.00,,---,0.12,VWS V14.01,2013-07-23 23:38:00,
2013-07-23 19:43:00,75.4,70.2,29.53,North,359,0.0,0.0,84,0.00,,---,0.12,VWS V14.01,2013-07-23 23:43:00,
2013-07-23 19:48:00,76.0,70.8,29.53,North,359,0.0,0.0,84,0.00,,---,0.12,VWS V14.01,2013-07-23 23:48:00,
2013-07-23 19:53:00,75.2,70.0,29.53,North,359,0.0,0.0,84,0.00,,---,0.12,VWS V14.01,2013-07-23 23:53:00,
2013-07-23 19:58:00,75.9,70.8,29.53,North,359,0.0,0.0,84,0.01,,---,0.13,VWS V14.01,2013-07-23 23:58:00,
2013-07-23 20:03:00,75.9,70.7,29.53,North,359,0.0,0.0,84,0.01,,---,0.13,VWS V14.01,2013-07-24 00:03:00,
2013-07-23 20:08:00,76.4,71.1,29.53,North,359,0.0,4.0,84,0.01,,---,0.13,VWS V14.01,2013-07-24 00:08:00,
2013-07-23 20:13:00,76.1,70.9,29.53,North,359,0.0,0.0,84,54.97,,---,0.13,VWS V14.01,2013-07-24 00:13:00,
2013-07-23 20:19:00,75.9,71.0,29.54,North,359,0.0,0.0,85,0.01,,---,0.13,VWS V14.01,2013-07-24 00:19:00,
2013-07-23 20:24:00,76.7,71.9,29.54,North,359,0.0,0.0,85,0.01,,---,0.13,VWS V14.01,2013-07-24 00:24:00,
2013-07-23 20:29:00,76.1,71.1,29.54,North,359,0.0,0.0,85,0.01,,---,0.13,VWS V14.01,2013-07-24 00:29:00,
2013-07-23 20:34:00,76.5,71.6,29.54,North,359,0.0,0.0,85,0.01,,---,0.13,VWS V14.01,2013-07-24 00:34:00,
2013-07-23 20:39:00,76.8,71.9,29.54,North,359,0.0,0.0,85,0.01,,---,0.13,VWS V14.01,2013-07-24 00:39:00,
2013-07-23 20:44:00,76.4,71.6,29.54,North,359,0.0,0.0,85,0.01,,---,0.13,VWS V14.01,2013-07-24 00:44:00,
2013-07-23 20:49:00,75.8,71.0,29.54,North,359,0.0,0.0,85,0.01,,---,0.13,VWS V14.01,2013-07-24 00:49:00,
2013-07-23 20:54:00,76.1,71.4,29.55,North,359,0.0,0.0,85,0.01,,---,0.13,VWS V14.01,2013-07-24 00:54:00,
2013-07-23 20:59:00,75.3,70.9,29.55,North,359,0.0,0.0,86,0.00,,---,0.13,VWS V14.01,2013-07-24 00:59:00,
2013-07-23 21:04:00,75.4,71.1,29.55,North,359,0.0,0.0,87,0.00,,---,0.13,VWS V14.01,2013-07-24 01:04:00,
2013-07-23 21:09:00,75.9,71.9,29.55,North,359,0.0,0.0,87,0.00,,---,0.13,VWS V14.01,2013-07-24 01:09:00,
2013-07-23 21:14:00,76.3,72.3,29.55,North,359,0.0,0.0,88,0.00,,---,0.13,VWS V14.01,2013-07-24 01:14:00,
2013-07-23 21:19:00,76.0,72.3,29.56,North,359,0.0,0.0,88,0.00,,---,0.13,VWS V14.01,2013-07-24 01:19:00,
2013-07-23 21:23:00,73.6,72.2,29.56,SW,222,0.0,0.0,95,0.00,,---,0.13,VWS V14.01,2013-07-24 01:23:00,
2013-07-23 21:24:00,75.0,71.6,29.56,North,359,0.0,0.0,89,0.00,,---,0.13,VWS V14.01,2013-07-24 01:24:00,
2013-07-23 21:29:00,75.4,72.2,29.56,North,359,0.0,0.0,90,0.00,,---,0.13,VWS V14.01,2013-07-24 01:29:00,
2013-07-23 21:34:00,74.8,71.8,29.56,North,359,0.0,0.0,90,0.00,,---,0.13,VWS V14.01,2013-07-24 01:34:00,
2013-07-23 21:39:00,74.7,71.8,29.56,North,359,0.0,0.0,91,54.97,,---,0.13,VWS V14.01,2013-07-24 01:39:00,
2013-07-23 21:44:00,74.5,71.7,29.56,North,359,0.0,0.0,91,0.00,,---,0.13,VWS V14.01,2013-07-24 01:44:00,
2013-07-23 21:49:00,75.0,72.2,29.57,North,359,0.0,0.0,91,0.00,,---,0.13,VWS V14.01,2013-07-24 01:49:00,
2013-07-23 21:55:00,74.9,72.1,29.57,North,359,0.0,0.0,91,0.00,,---,0.13,VWS V14.01,2013-07-24 01:55:00,
2013-07-23 22:00:00,75.1,72.3,29.56,North,359,0.0,0.0,91,0.00,,---,0.13,VWS V14.01,2013-07-24 02:00:00,
2013-07-23 22:05:00,75.1,72.2,29.57,North,359,0.0,0.0,91,0.00,,---,0.13,VWS V14.01,2013-07-24 02:05:00,
2013-07-23 22:10:00,75.3,72.5,29.57,North,359,0.0,0.0,91,0.00,,---,0.13,VWS V14.01,2013-07-24 02:10:00,
2013-07-23 22:15:00,74.1,71.5,29.57,North,359,0.0,0.0,92,0.00,,---,0.13,VWS V14.01,2013-07-24 02:15:00,
2013-07-23 22:20:00,74.1,71.6,29.57,North,359,0.0,0.0,92,0.00,,---,0.13,VWS V14.01,2013-07-24 02:20:00,
2013-07-23 22:25:00,73.6,71.1,29.57,North,359,0.0,0.0,92,0.00,,---,0.13,VWS V14.01,2013-07-24 02:25:00,
2013-07-23 22:30:00,74.9,72.6,29.58,North,359,0.0,0.0,92,0.00,,---,0.13,VWS V14.01,2013-07-24 02:30:00,
2013-07-23 22:35:00,74.8,72.6,29.57,North,359,0.0,0.0,93,0.00,,---,0.13,VWS V14.01,2013-07-24 02:35:00,
2013-07-23 22:40:00,73.6,71.5,29.57,North,359,0.0,0.0,93,0.00,,---,0.13,VWS V14.01,2013-07-24 02:40:00,
2013-07-23 22:46:00,74.0,72.0,29.58,SSE,158,1.9,2.0,94,0.00,,---,0.13,VWS V14.01,2013-07-24 02:46:00,
2013-07-23 22:51:00,74.5,72.6,29.57,SW,222,0.0,0.0,94,0.00,,---,0.13,VWS V14.01,2013-07-24 02:51:00,
2013-07-23 22:56:00,73.9,72.1,29.57,SW,222,0.0,0.0,94,0.00,,---,0.13,VWS V14.01,2013-07-24 02:56:00,
2013-07-23 23:01:00,73.9,72.1,29.56,SW,222,0.0,0.0,94,0.00,,---,0.13,VWS V14.01,2013-07-24 03:01:00,
2013-07-23 23:06:00,73.8,72.1,29.56,SW,222,0.0,0.0,94,0.00,,---,0.13,VWS V14.01,2013-07-24 03:06:00,
2013-07-23 23:11:00,74.4,72.8,29.56,SW,222,0.0,0.0,95,0.00,,---,0.13,VWS V14.01,2013-07-24 03:11:00,
2013-07-23 23:12:00,73.8,72.3,29.56,SW,222,0.0,0.0,95,0.00,,---,0.13,VWS V14.01,2013-07-24 03:12:00,
2013-07-23 23:16:00,73.4,71.8,29.56,SW,222,0.0,0.0,95,0.00,,---,0.13,VWS V14.01,2013-07-24 03:16:00,
2013-07-23 23:21:00,74.0,72.5,29.57,SW,222,0.0,0.0,95,0.00,,---,0.13,VWS V14.01,2013-07-24 03:21:00,
2013-07-23 23:26:00,73.7,72.2,29.56,SW,222,0.0,0.0,95,0.00,,---,0.13,VWS V14.01,2013-07-24 03:26:00,
2013-07-23 23:31:00,73.6,72.2,29.56,SW,222,0.0,0.0,95,0.00,,---,0.13,VWS V14.01,2013-07-24 03:31:00,
2013-07-23 23:36:00,73.1,71.8,29.57,SW,222,0.0,0.0,96,0.00,,---,0.13,VWS V14.01,2013-07-24 03:36:00,
2013-07-23 23:41:00,72.3,71.1,29.57,North,359,0.0,5.7,96,0.00,,---,0.13,VWS V14.01,2013-07-24 03:41:00,
2013-07-23 23:46:00,72.4,71.3,29.57,North,359,0.0,0.0,96,0.00,,---,0.13,VWS V14.01,2013-07-24 03:46:00,
2013-07-23 23:51:00,72.3,71.2,29.57,North,359,0.0,0.0,96,0.00,,---,0.13,VWS V14.01,2013-07-24 03:51:00,
2013-07-23 23:56:00,72.5,71.4,29.57,North,359,0.0,0.0,96,0.00,,---,0.13,VWS V14.01,2013-07-24 03:56:00,